Regional Weather Roundup
Issued by NWS Charleston, SC

Current Version | Previous Version | Graphics & Text | Print | Product List | Glossary On
Versions: 1 2 3 4 5 6 7 8 9 10 11 12 13 14 15 16 17 18 19 20 21 22 23 24 25 26 27 28 29 30 31 32 33 34 35 36 37 38 39 40 41 42 43 44 45 46 47 48 49 50
000 ASUS42 KCHS 180727 RWRCHS Regional Weather Roundup National Weather Service Charleston SC 200 AM EST THU JAN 18 2018 NOTE: "fair" indicates few or no clouds below 12,000 feet with no significant weather and/or obstructions to visibility. Not all stations are quality controlled. Use data with caution, especially dewpoint observations. SCZ027-030-031-034>040-042>050-180800- ...Southeast South Carolina... CITY SKY/WX TMP DP RH WIND PRES REMARKS N Charleston FAIR 30 21 69 N15 30.28F WCI 19 Waterfront Prk NOT AVBL Mount Pleasant PTSUNNY 32 21 64 N13G22 30.28S WCI 22 Johns Island FAIR 30 21 69 NW12G18 30.28S WCI 21 Pinopolis N/A 30 25 80 N17 30.22R WCI 18 Moncks Corner PTSUNNY 28 18 64 N12G21 30.29F WCI 18 Summerville PTSUNNY 30 23 74 NW7 30.30F WCI 23 Beaufort MCAS MOCLDY 31 25 78 W10 30.32R WCI 22 Beaufort Arpt PTSUNNY 32 27 80 NW9 30.31R WCI 24 Hilton Head Is FAIR 30 18 59 VRB6G13 30.33R WCI 24 Walterboro FAIR 28 21 74 NW6 30.32R WCI 22 Allendale FAIR 25 16 68 NW6 30.33S WCI 18 ...Southern Midlands and Pee Dee... CITY SKY/WX TMP DP RH WIND PRES REMARKS Georgetown CLOUDY 30 23 74 NW12G22 30.27F WCI 21 Kingstree FAIR 27 16 63 NW7 30.30F WCI 19 Orangeburg FAIR 27 14 58 N8 30.31F WCI 19 Barnwell NOT AVBL Aiken FAIR 19 12 73 NW6 30.35F WCI 11 Manning FAIR 28 18 64 MISG 30.30F Columbia FAIR 26 15 63 N8 30.33F WCI 18 Sumter FAIR 26 13 59 NW10 30.30R WCI 15 Florence FAIR 25 16 68 NW15 30.30R WCI 13 Myrtle Beach CLOUDY 30 24 78 NW15G21 30.25R WCI 19 N Myrtle Beach CLOUDY 30 22 72 N9G20 30.23R WCI 22 $$ GAZ063-065-086>088-099>101-113>116-118-119-134>141-150-180800- ...Southeast Georgia... CITY SKY/WX TMP DP RH WIND PRES REMARKS Savannah Arpt FAIR 27 12 53 W12 30.36R WCI 17 Hunter AAF FAIR 25 13 59 W10 30.32R WCI 15 Fort Stewart FAIR 26 10 51 W9 30.36R WCI 17 Statesboro FAIR 26 10 51 W9 30.37R WCI 17 Sylvania FAIR 25 16 68 NW7 30.36S WCI 17 Claxton FAIR 26 13 56 W8 30.38F WCI 18 ...CSRA, Central and far Southeast Georgia... CITY SKY/WX TMP DP RH WIND PRES REMARKS Thomson FAIR 20 10 63 N5 30.42S WCI 14 Augusta-Bush FAIR 23 11 60 N8 30.36S WCI 14 Augusta-Daniel FAIR 24 9 52 N7 30.35R WCI 16 Swainsboro FAIR 23 14 68 NW7 30.39F WCI 15 Vidalia FAIR 27 14 59 NW8 30.39R WCI 18 Eastman FAIR 23 5 45 NW3 30.45S Hazlehurst FAIR 25 5 42 CALM 30.40S Alma FAIR 25 11 55 NW7 30.41R WCI 17 Waycross FAIR 25 9 49 NW9 30.41S WCI 16 Jesup NOT AVBL Baxley FAIR 23 10 58 NW7 30.40S WCI 15 Brunswick FAIR 27 12 54 W7 30.40R WCI 19 Saint Simons FAIR 27 13 55 W7 30.38R WCI 19 $$ SCZ027-028-034-036>038-045-046-048>050-GAZ119-141-180800- ...Lake and Supplemental Coastal Observations... STATION/POSITION TIME TEMP WIND PRES WAVE SWELL AIR SEA DIR/SP/G HT/PER HT/PER/DIR (UTC) (F) (DEG/KT/KT) (MB) (FT/S) (FT/S/D) Winyah Bay 0645 30 320/ 11 1025.0R Lake Murray 0720 21 330/ 3/ 7 1026.1F ACE Basin NERRS 0645 31 340/ 4 1025.0F Fort Pulaski 0700 30 46 300/ 17/ 21 1027.4 Sapelo Island 0700 28 310/ 12 1028.0 $$ ANZ835-935-AMZ111-154-330-350-352-354-370-450-454-472-180800- ...C-MAN and Buoy Observations... STATION/POSITION TIME TEMP WIND PRES WAVE SWELL AIR SEA DIR/SP/G HT/PER HT/PER/DIR (UTC) (F) (DEG/KT/KT) (MB) (FT/S) (FT/S/D) Buoy 41004 0710 38 330/ 23/ 31 1023.3 Buoy 41008 0650 33 51 310/ 21/ 25 1026.8R 4/ 4 2/ 70/11 Folly Beach CMAN 0700 32 330/ 14/ 18 1025.3F Capers Nearshore 0708 29 48 340/ 19/ 29 1024.5R Fripp Nearshore 0708 32 45 320/ 16/ 21 1025.2R STATION/POSITION TIME TEMP WIND PRES WAVE SWELL AIR SEA DIR/SP/G HT/PER HT/PER/DIR (UTC) (F) (DEG/KT/KT) (MB) (FT/S) (FT/S/D) 5E St. Marys GA 0700 49 N/A 4/ 4 2/ 80/11 Frying Pan Buoy 0710 35 320/ 21/ 27 1021.2 Buoy 41025 0710 37 330/ 31/ 39 1016.1 Cape Lookout NC 0700 340/ 16/ 18 1019.6S Buoy 41002 0650 63 70 280/ 31/ 39 1013.2S 10/11 5/ 60/11 Buoy 41010 NOT AVBL St Augustine FL 0700 29 49 330/ 11/ 14 1028.6R $$

USA.gov is the U.S. government's official web portal to all federal, state and local government web resources and services.